FW5799 Weather Reports


Display with metric or nautical units.
time (UTC)temp
F
wind
direction
speed
MPH
gust
MPH
rain 1hr
in
rain 24hr
in
rain mn
in
humidity
%
barometer
mb
20260506233101 47 0 1.0 6.0 0.00 0.00 0.00 85 1013.6
20260506231559 48 360 1.0 5.0 0.00 0.00 0.00 84 1013.6
20260506230100 48 360 0.0 4.0 0.00 0.00 0.00 84 1013.6
20260506224556 48 360 1.0 6.0 0.00 0.00 0.00 83 1013.5
20260506223058 49 360 1.0 5.0 0.00 0.00 0.00 82 1013.5
20260506221558 49 360 2.0 5.0 0.00 0.00 0.00 82 1013.5
20260506220057 49 0 1.0 8.0 0.00 0.00 0.00 83 1013.4
20260506214553 49 0 1.0 4.0 0.00 0.00 0.00 84 1013.3
20260506213118 49 0 0.0 4.0 0.00 0.00 0.00 84 1013.1
20260506211608 49 0 0.0 3.0 0.00 0.00 0.00 85 1013.0
20260506204601 50 0 0.0 1.0 0.00 0.00 0.00 85 1012.7
20260506203102 50 0 0.0 0.0 0.00 0.00 0.00 84 1012.8
20260506201609 50 0 0.0 1.0 0.00 0.00 0.00 83 1012.6
20260506194610 50 0 0.0 0.0 0.00 0.00 0.00 83 1012.3
20260506193057 50 0 0.0 1.0 0.00 0.00 0.00 81 1012.2
20260506191610 50 0 0.0 2.0 0.00 0.00 0.00 81 1012.0
20260506190103 51 0 0.0 1.0 0.00 0.00 0.00 80 1011.8
20260506184607 51 360 0.0 2.0 0.00 0.00 0.00 78 1011.7
20260506183103 51 0 0.0 2.0 0.00 0.00 0.00 77 1011.6
20260506181556 52 0 0.0 3.0 0.00 0.00 0.00 77 1011.4
20260506180058 52 0 0.0 3.0 0.00 0.00 0.00 75 1011.3
20260506174601 52 0 0.0 1.0 0.00 0.00 0.00 76 1011.2
20260506173103 52 0 1.0 5.0 0.00 0.00 0.00 75 1010.9
20260506171602 52 0 0.0 3.0 0.00 0.00 0.00 76 1010.9
20260506170116 52 0 0.0 5.0 0.00 0.00 0.00 77 1010.8
20260506164601 52 0 0.0 3.0 0.00 0.00 0.00 78 1010.9
20260506163111 52 0 0.0 3.0 0.00 0.00 0.00 78 1010.8
20260506161559 51 0 2.0 8.0 0.00 0.00 0.00 77 1010.8
20260506160100 52 0 1.0 4.0 0.00 0.00 0.00 80 1010.6
20260506154607 52 360 1.0 8.0 0.00 0.00 0.00 72 1010.7
20260506153104 53 360 1.0 5.0 0.00 0.00 0.00 70 1010.7
20260506151607 53 360 2.0 10.0 0.00 0.00 0.00 70 1010.6
20260506150103 53 360 1.0 6.0 0.00 0.00 0.00 71 1010.5
20260506144607 53 360 0.0 9.0 0.00 0.00 0.00 73 1010.4
20260506143109 53 0 1.0 8.0 0.00 0.00 0.00 76 1010.4
20260506141558 53 360 1.0 8.0 0.00 0.00 0.00 77 1010.4
20260506140058 52 360 2.0 8.0 0.00 0.00 0.00 78 1010.4
20260506134556 52 360 2.0 13.0 0.00 0.00 0.00 79 1010.4
20260506133058 52 360 3.0 12.0 0.00 0.00 0.00 77 1010.4
20260506131603 52 360 1.0 8.0 0.00 0.00 0.00 75 1010.3
20260506124556 52 360 2.0 11.0 0.00 0.00 0.00 73 1010.0
20260506123058 53 0 1.0 5.0 0.00 0.00 0.00 71 1009.9
20260506121558 52 360 2.0 10.0 0.00 0.00 0.00 72 1009.9
20260506120056 52 360 1.0 8.0 0.00 0.00 0.00 71 1009.9
20260506114607 52 360 3.0 9.0 0.00 0.00 0.00 71 1009.9
20260506113057 52 360 2.0 10.0 0.00 0.00 0.00 69 1009.8
20260506111602 53 360 2.0 10.0 0.00 0.00 0.00 69 1009.7
20260506110058 53 360 3.0 10.0 0.00 0.00 0.00 70 1009.6
20260506104559 52 360 1.0 6.0 0.00 0.00 0.00 69 1009.7
20260506103117 52 360 2.0 8.0 0.00 0.00 0.00 71 1009.6
20260506101557 52 360 1.0 10.0 0.00 0.00 0.00 72 1009.5
20260506100057 52 360 3.0 13.0 0.00 0.00 0.00 72 1009.5
20260506094606 52 360 2.0 8.0 0.00 0.00 0.00 73 1009.5
20260506093056 52 360 1.0 6.0 0.00 0.00 0.00 73 1009.4
20260506091607 51 360 1.0 9.0 0.00 0.00 0.00 76 1009.3
20260506090100 51 360 2.0 8.0 0.00 0.00 0.00 75 1009.2
20260506084614 51 360 2.0 10.0 0.00 0.00 0.00 76 1009.2
20260506083057 51 360 1.0 5.0 0.00 0.00 0.00 76 1009.2
20260506081607 50 0 0.0 9.0 0.00 0.00 0.00 79 1009.1
20260506073102 50 55 1.0 8.0 0.00 0.00 0.00 85 1008.8
20260506071559 50 16 2.0 8.0 0.00 0.00 0.00 88 1008.6
20260506061601 48 325 0.0 4.0 0.00 0.00 0.00 93 1008.6
20260506050118 47 352 1.0 5.0 0.00 0.00 0.00 95 1008.5
20260506044557 47 32 1.0 5.0 0.00 0.00 0.00 95 1008.4
20260506043106 47 0 1.0 3.0 0.00 0.00 0.00 95 1008.4
20260506041557 47 23 0.0 5.0 0.00 0.00 0.00 95 1008.6
20260506040108 47 11 0.0 4.0 0.00 0.00 0.00 95 1008.6
20260506034605 47 343 0.0 3.0 0.00 0.00 0.00 96 1008.6
20260506033055 47 352 1.0 3.0 0.00 0.00 0.00 96 1008.8
20260506031556 46 337 0.0 3.0 0.00 0.00 0.00 96 1008.8
20260506030058 46 344 1.0 3.0 0.00 0.00 0.00 96 1008.9
20260506024600 46 0 0.0 4.0 0.00 0.00 0.00 96 1009.1
20260506023103 46 346 0.0 5.0 0.00 0.00 0.00 96 1009.2
20260506021605 46 329 1.0 5.0 0.00 0.00 0.00 96 1009.1
20260506020059 47 0 1.0 5.0 0.00 0.00 0.00 96 1009.2
20260506014558 47 311 1.0 5.0 0.00 0.00 0.00 96 1009.3
20260506013105 47 0 2.0 6.0 0.00 0.00 0.00 96 1009.3
20260506011606 47 11 1.0 5.0 0.00 0.00 0.00 95 1009.5
20260506010057 47 340 2.0 6.0 0.00 0.00 0.00 95 1009.5
20260506004556 47 360 2.0 8.0 0.00 0.01 0.00 94 1009.7
20260506003058 47 360 0.0 8.0 0.00 0.01 0.00 93 1009.8
20260506001556 47 360 3.0 8.0 0.00 0.01 0.00 92 1009.8
20260506000058 48 360 1.0 5.0 0.00 0.01 0.00 91 1009.8
20260505234606 48 360 1.0 8.0 0.00 0.03 0.00 91 1010.0